[[{"header":{"parameterUnit":"m.s-1","parameterCategory":1,"la1":30.2991,"la2":30.254,"lo1":-89.0895,"lo2":-89.0444,"dy":0.0017,"dx":0.0017,"nx":28,"ny":28,"refTime":"2024-03-15T09:00:00:Z","depth":0,"parameterNumber":2,"parameterNumberName":"U-component_of_WINDS"},"data":[0,0,0,0,0,0,0,0,0,0,0,0,0,0,0,0,0,0,0,0,0,0,0,0,0,0,0,0,0,0,0,0,0,0,0,0,0,0,0,0,0,0,0,0,0,0,0,0,0,0,0,0,0,0,0,0,0,0,-0.1918,-0.1918,0,-0.193,-0.1931,-0.1931,-0.1956,-0.1957,-0.1957,-0.1958,-0.1969,-0.1969,-0.1969,0,0,0,0,0,0,0,0,0,0,0,0,0,-0.1917,-0.1916,-0.1918,-0.1918,-0.1919,-0.193,-0.1931,-0.1931,-0.1956,-0.1957,-0.1957,-0.1958,-0.1969,-0.1969,-0.1969,0,0,0,0,0,0,0,0,0,0,0,0,0,-0.1922,-0.1916,-0.1918,-0.1933,-0.1934,-0.193,-0.1931,-0.1931,-0.1956,-0.1957,-0.1958,-0.1958,-0.197,-0.1969,-0.1969,-0.1952,0,0,-0.1968,-0.1968,0,0,0,0,0,0,0,0,-0.1921,-0.1922,-0.193,-0.1932,-0.1933,-0.1943,-0.1934,-0.1938,-0.1956,-0.1948,-0.1958,-0.1959,-0.196,-0.196,-0.1961,-0.1953,-0.1953,-0.1968,-0.1968,-0.1968,-0.1968,0,0,0,0,0,0,0,-0.1921,-0.1921,-0.1923,-0.1931,-0.1932,-0.1938,-0.194,-0.1935,-0.1949,-0.1948,-0.195,-0.1951,-0.1961,-0.1961,-0.1961,-0.1953,-0.1968,-0.1968,-0.1968,-0.1968,-0.193,-0.1929,0,0,0,0,0,0,-0.1919,-0.1921,-0.1923,-0.1923,-0.1929,-0.1938,-0.194,-0.1939,-0.1949,-0.1952,-0.1951,-0.1953,-0.1961,-0.1962,-0.1962,-0.1941,-0.1968,-0.1968,-0.1968,-0.1931,-0.193,-0.1929,0,0,0,0,0,0,-0.1919,-0.1919,-0.1922,-0.1923,-0.1924,-0.1937,-0.1936,-0.1939,-0.1939,-0.1951,-0.1954,-0.1949,-0.1962,-0.1962,-0.1954,-0.1942,-0.1968,-0.1967,-0.1932,-0.193,-0.1929,-0.19,0,0,0,0,0,0,-0.1918,-0.1918,-0.1912,-0.1922,-0.1924,-0.1914,-0.1935,-0.1938,-0.1939,-0.1941,-0.195,-0.1952,-0.1962,-0.1954,-0.1954,-0.1942,-0.1967,-0.1933,-0.1931,-0.193,-0.1902,-0.1898,-0.1895,0,0,0,0,0,-0.1918,-0.1904,-0.1912,-0.1912,-0.1916,-0.1913,-0.1914,-0.1927,-0.1938,-0.1931,-0.1939,-0.1952,-0.1944,-0.1953,-0.1953,-0.1941,-0.1934,-0.1932,-0.193,-0.1904,-0.1899,-0.1895,0,0,0,0,0,0,-0.1892,-0.1905,-0.1914,-0.1903,-0.1907,-0.1918,-0.191,-0.1921,-0.1922,-0.1924,-0.194,-0.1941,-0.1931,-0.1935,-0.1945,-0.1924,-0.1941,-0.1939,-0.1921,-0.1917,-0.1913,-0.1911,-0.1967,0,0,0,0,0,-0.1885,-0.1882,-0.1894,-0.1883,-0.1884,-0.1897,-0.1896,-0.1905,-0.191,-0.1912,-0.1919,-0.1923,-0.1921,-0.1919,-0.1919,-0.1904,-0.1905,-0.1896,-0.1892,-0.1889,-0.1886,-0.1877,-0.1872,-0.1922,-0.1922,-0.1923,0,0,-0.187,-0.1877,-0.1874,-0.1877,-0.1881,-0.1877,-0.1898,-0.1893,-0.189,-0.1911,-0.1903,-0.1908,-0.1914,-0.1902,-0.1897,-0.1905,-0.1873,-0.1886,-0.1883,-0.1883,-0.1875,-0.187,-0.1866,-0.1921,-0.1921,-0.1922,0,0,-0.184,-0.1846,-0.1837,-0.184,-0.1846,-0.1855,-0.1852,-0.1862,-0.1866,-0.1858,-0.1874,-0.187,-0.1867,-0.187,-0.1871,-0.1842,-0.1853,-0.1842,-0.1821,-0.1812,-0.1808,-0.1804,-0.1792,-0.1788,-0.1839,-0.1839,-0.1839,0,-0.1821,-0.1816,-0.183,-0.1824,-0.1824,-0.1844,-0.1833,-0.1836,-0.1842,-0.1841,-0.1851,-0.1847,-0.1852,-0.184,-0.1833,-0.1834,-0.1831,-0.184,-0.1807,-0.1804,-0.1801,-0.179,-0.1785,-0.1838,-0.1838,-0.1838,-0.1838,0,-0.1791,-0.1787,-0.1778,-0.1782,-0.1782,-0.1774,-0.1787,-0.1785,-0.1795,-0.1802,-0.1793,-0.18,-0.18,-0.1799,-0.1808,-0.1788,-0.1792,-0.1805,-0.1821,-0.1794,-0.1784,-0.178,-0.1835,-0.1836,-0.1836,-0.1837,0,0,-0.1744,-0.1756,-0.1753,-0.1754,-0.1762,-0.1759,-0.1752,-0.1752,-0.1749,-0.1753,-0.1746,-0.1743,-0.1754,-0.1755,-0.1765,-0.1757,-0.1732,-0.177,-0.177,-0.1761,-0.1708,-0.1697,-0.1692,-0.174,-0.1739,-0.1739,-0.1707,0,-0.1715,-0.1703,-0.1715,-0.17,-0.1696,-0.1714,-0.1707,-0.1711,-0.1718,-0.1715,-0.1723,-0.1719,-0.1735,-0.1736,-0.1729,-0.1736,-0.1721,-0.1739,-0.1733,-0.1732,-0.1729,-0.1687,-0.1676,-0.1645,-0.1703,-0.1702,-0.1702,0,-0.1679,-0.168,-0.1664,-0.1672,-0.1671,-0.1665,-0.1665,-0.1663,-0.1667,-0.1673,-0.1673,-0.1685,-0.1678,-0.1695,-0.1685,-0.1696,-0.1695,-0.1698,-0.1697,-0.1695,-0.1714,-0.1682,-0.1636,-0.1631,-0.1696,-0.1696,-0.1697,0,-0.1644,-0.1642,-0.1632,-0.1633,-0.1642,-0.1637,-0.1641,-0.1646,-0.1645,-0.1646,-0.1645,-0.1645,-0.1645,-0.1644,-0.1656,-0.1668,-0.1643,-0.1662,-0.1646,-0.1645,-0.1638,-0.1638,-0.1589,-0.1641,-0.1641,-0.1641,-0.1641,0,-0.1609,-0.1598,-0.1616,-0.1609,-0.1598,-0.1613,-0.16,-0.1606,-0.161,-0.1605,-0.1621,-0.1616,-0.1632,-0.1628,-0.1637,-0.1626,-0.1626,-0.163,-0.1632,-0.1627,-0.1626,-0.1625,-0.1626,-0.164,-0.164,-0.164,-0.164,0,-0.1568,-0.1579,-0.1569,-0.1579,-0.1581,-0.1571,-0.158,-0.1574,-0.1582,-0.1574,-0.1574,-0.1586,-0.1582,-0.1594,-0.1592,-0.1598,-0.1581,-0.1588,-0.1579,-0.158,-0.1563,-0.1564,-0.151,-0.1503,-0.156,-0.156,-0.1559,0,-0.1544,-0.1536,-0.1544,-0.1542,-0.1544,-0.154,-0.1539,-0.1554,-0.1552,-0.1556,-0.1549,-0.1547,-0.1545,-0.1538,-0.1546,-0.1545,-0.155,-0.1532,-0.155,-0.1545,-0.1547,-0.1547,-0.1545,-0.1527,-0.1526,-0.1526,-0.1525,0,-0.1499,-0.1505,-0.1503,-0.1502,-0.15,-0.1501,-0.1502,-0.1499,-0.1515,-0.1512,-0.1508,-0.1506,-0.1504,-0.1501,-0.1501,-0.1505,-0.1517,-0.152,-0.1516,-0.1509,-0.1504,-0.1505,-0.1566,-0.152,-0.1521,-0.1521,-0.1521,-0.1522,-0.1464,-0.1457,-0.1462,-0.1458,-0.1461,-0.1462,-0.1456,-0.1464,-0.146,-0.1459,-0.1469,-0.1462,-0.1466,-0.1468,-0.147,-0.1465,-0.1474,-0.1468,-0.1467,-0.1464,-0.146,-0.1506,-0.1466,-0.1466,-0.1466,-0.1466,-0.1466,0,-0.1419,-0.1423,-0.1419,-0.1421,-0.1418,-0.143,-0.1432,-0.1429,-0.1423,-0.1426,-0.1424,-0.1419,-0.1416,-0.1424,-0.1422,-0.1416,-0.1422,-0.1415,-0.1415,-0.1415,-0.1454,-0.1457,-0.1411,-0.1411,-0.1411,-0.1411,-0.1411,-0.1411,-0.1394,-0.1383,-0.1389,-0.1379,-0.1383,-0.1377,-0.1376,-0.1377,-0.1379,-0.1373,-0.137,-0.1376,-0.138,-0.1379,-0.1376,-0.1378,-0.1376,-0.1367,-0.1371,-0.1407,-0.1412,-0.1417,-0.142,-0.1367,-0.1367,-0.1332,-0.1332,-0.1331]},{"header":{"parameterUnit":"m.s-1","parameterCategory":1,"la1":30.2991,"la2":30.254,"lo1":-89.0895,"lo2":-89.0444,"dy":0.0017,"dx":0.0017,"nx":28,"ny":28,"refTime":"2024-03-15T09:00:00:Z","depth":0,"parameterNumber":3,"parameterNumberName":"V-component_of_WINDS"},"data":[0,0,0,0,0,0,0,0,0,0,0,0,0,0,0,0,0,0,0,0,0,0,0,0,0,0,0,0,0,0,0,0,0,0,0,0,0,0,0,0,0,0,0,0,0,0,0,0,0,0,0,0,0,0,0,0,0,0,2.1329,2.133,0,2.1407,2.1408,2.1409,2.142,2.1419,2.1418,2.1418,2.1497,2.1499,2.1502,0,0,0,0,0,0,0,0,0,0,0,0,0,2.1191,2.1194,2.1329,2.133,2.1331,2.1407,2.1408,2.1409,2.142,2.1419,2.1418,2.1417,2.1496,2.1499,2.1502,0,0,0,0,0,0,0,0,0,0,0,0,0,2.1258,2.1195,2.1329,2.1346,2.1348,2.1407,2.1408,2.1409,2.142,2.1419,2.1418,2.1417,2.1495,2.1499,2.1503,2.155,0,0,2.1516,2.1517,0,0,0,0,0,0,0,0,2.1255,2.1263,2.1343,2.1345,2.1348,2.1403,2.1388,2.1456,2.142,2.1393,2.1418,2.1417,2.1466,2.1473,2.149,2.1554,2.1557,2.1516,2.1518,2.152,2.1521,0,0,0,0,0,0,0,2.125,2.126,2.136,2.1344,2.1347,2.135,2.1358,2.1401,2.1435,2.1395,2.1396,2.1405,2.1467,2.1486,2.1492,2.1558,2.1516,2.152,2.1522,2.1524,2.1666,2.1668,0,0,0,0,0,0,2.1242,2.1256,2.1358,2.1362,2.1297,2.1353,2.1362,2.1386,2.1434,2.144,2.1406,2.1405,2.1479,2.1487,2.1494,2.1554,2.152,2.1524,2.1526,2.1665,2.1667,2.1668,0,0,0,0,0,0,2.1239,2.1251,2.1354,2.131,2.1323,2.1357,2.1383,2.1388,2.1406,2.1442,2.1448,2.1418,2.1478,2.1489,2.1536,2.1557,2.1526,2.153,2.1664,2.1666,2.1667,2.1673,0,0,0,0,0,0,2.1235,2.125,2.1268,2.131,2.1325,2.1395,2.1384,2.139,2.1414,2.1413,2.1456,2.1462,2.1478,2.153,2.1541,2.1562,2.1533,2.1662,2.1664,2.1667,2.1671,2.1675,2.1678,0,0,0,0,0,2.123,2.1266,2.1269,2.1281,2.1349,2.1396,2.1405,2.1424,2.1415,2.1434,2.1457,2.146,2.1553,2.1535,2.1547,2.157,2.1661,2.1664,2.1667,2.1669,2.1674,2.1678,0,0,0,0,0,0,2.1225,2.1272,2.1275,2.1326,2.1357,2.1398,2.1422,2.1428,2.1462,2.1461,2.1482,2.1492,2.1539,2.1559,2.1538,2.1619,2.1606,2.1611,2.1604,2.1609,2.1612,2.1607,2.1536,0,0,0,0,0,2.123,2.1265,2.1303,2.1344,2.136,2.1388,2.141,2.1422,2.1455,2.1468,2.1495,2.1527,2.1563,2.1587,2.1622,2.1674,2.1684,2.1695,2.1699,2.1701,2.1706,2.1736,2.1742,2.1678,2.1678,2.1678,0,0,2.124,2.127,2.129,2.1344,2.137,2.1406,2.1399,2.1437,2.1465,2.1474,2.1521,2.1542,2.1579,2.163,2.1653,2.1648,2.1726,2.1705,2.1707,2.171,2.174,2.1746,2.1751,2.168,2.1679,2.1679,0,0,2.1278,2.1303,2.1341,2.1367,2.1406,2.1425,2.1433,2.1474,2.1488,2.1536,2.1545,2.1577,2.1639,2.1666,2.1687,2.1736,2.1741,2.1747,2.1765,2.1794,2.1799,2.1804,2.1823,2.1829,2.1751,2.1751,2.1751,0,2.1285,2.134,2.1359,2.1397,2.1421,2.1432,2.147,2.1494,2.1543,2.1559,2.1553,2.1632,2.1657,2.1715,2.1727,2.1743,2.1755,2.1743,2.1797,2.1802,2.1807,2.1825,2.1832,2.1752,2.1752,2.1752,2.1752,0,2.1349,2.1386,2.1412,2.1459,2.1486,2.1524,2.1549,2.1574,2.1584,2.1603,2.1653,2.1684,2.1727,2.1741,2.175,2.18,2.1796,2.1793,2.1781,2.1813,2.1831,2.1838,2.1753,2.1752,2.1752,2.1752,0,0,2.1385,2.1443,2.1453,2.1475,2.1519,2.1549,2.1588,2.163,2.1651,2.1684,2.1718,2.1771,2.1769,2.1794,2.1806,2.1831,2.187,2.1826,2.1827,2.1834,2.1929,2.1932,2.1939,2.1873,2.1874,2.1875,2.1926,0,2.1429,2.1499,2.1518,2.1578,2.1614,2.1624,2.1658,2.1689,2.1709,2.1742,2.1764,2.1802,2.1795,2.181,2.1836,2.186,2.1889,2.1856,2.1905,2.1907,2.1897,2.1948,2.1951,2.1998,2.1933,2.1934,2.1935,0,2.149,2.1525,2.1588,2.1629,2.1645,2.1675,2.1716,2.1748,2.1783,2.1796,2.1824,2.1834,2.1876,2.1861,2.1919,2.1896,2.1917,2.1932,2.1935,2.1941,2.1924,2.1957,2.2013,2.202,2.1945,2.1945,2.1944,0,2.1512,2.1575,2.1622,2.164,2.1689,2.171,2.1731,2.1766,2.179,2.1826,2.1842,2.1882,2.1904,2.1935,2.1956,2.1942,2.2013,2.1999,2.2025,2.2025,2.2041,2.204,2.2102,2.2052,2.2051,2.2051,2.2051,0,2.156,2.1599,2.1633,2.1662,2.1706,2.1727,2.177,2.1792,2.1822,2.1856,2.1867,2.1898,2.1923,2.1958,2.1975,2.2022,2.2031,2.2043,2.2047,2.2043,2.2042,2.2058,2.2056,2.2053,2.2053,2.2052,2.2052,0,2.1593,2.1617,2.1669,2.1711,2.1722,2.1753,2.1789,2.1818,2.1838,2.188,2.1891,2.1923,2.1964,2.1988,2.204,2.2051,2.2104,2.2106,2.2092,2.2094,2.212,2.2118,2.2196,2.2208,2.2148,2.2149,2.2149,0,2.1623,2.1653,2.1698,2.1722,2.1744,2.1781,2.1806,2.1828,2.1854,2.1898,2.1922,2.1964,2.1999,2.2065,2.2093,2.2133,2.2137,2.2162,2.2143,2.2139,2.214,2.2138,2.2142,2.2165,2.2166,2.2166,2.2167,0,2.1674,2.1684,2.1721,2.1762,2.1792,2.1825,2.1858,2.1876,2.1904,2.1932,2.1975,2.2003,2.2057,2.2099,2.2142,2.2164,2.2171,2.2172,2.2181,2.2177,2.2169,2.2176,2.2103,2.2171,2.217,2.217,2.217,2.217,2.1707,2.1735,2.1772,2.1812,2.1839,2.187,2.19,2.1924,2.196,2.2006,2.2016,2.2062,2.2098,2.2156,2.2179,2.2216,2.2211,2.2223,2.2226,2.2229,2.2231,2.2162,2.2223,2.2223,2.2223,2.2223,2.2223,0,2.176,2.1784,2.1821,2.1867,2.1899,2.1902,2.1939,2.1966,2.2006,2.2039,2.2074,2.2124,2.2165,2.2196,2.2239,2.2262,2.2266,2.2272,2.2272,2.2277,2.2232,2.2221,2.2268,2.2268,2.2268,2.2268,2.2268,2.2268,2.1792,2.184,2.1855,2.1917,2.1941,2.1986,2.2007,2.2036,2.2062,2.2118,2.2153,2.2172,2.2205,2.225,2.2288,2.2297,2.2312,2.2319,2.2327,2.2285,2.228,2.2275,2.2265,2.2321,2.2322,2.237,2.237,2.2371]}]]